INTELSAT 26 (IS-26)

Last updated on Sept. 20, 2020, 5:45 a.m. UTC

1 24732U 97007A   20262.97340907 -.00000005  00000-0  00000+0 0  9997
2 24732   9.1690  42.4171 0002230 128.8920 241.1012  1.00271888 86258
UTC
Height (km)
Latitude
Longitude
Inclination
Orbital Period
UTC large
Height (km)
Speed (km/s)
/
Latitude / Longitude
Inclination (degrees)
Orbital Period (minutes)
Azimuth
Elevation
Range (km)
Doppler Factor
iOS Compass Heading
iOS Angle

Next 30 passes for location: Hong Kong

Rise time Rise Azimuth (degrees) Set time Set Azimuth (degrees) Duration Max altitude (degrees)

No matching passes for this satellites